[[{"header":{"parameterUnit":"m.s-1","parameterCategory":1,"la1":30.2991,"la2":30.254,"lo1":-89.0895,"lo2":-89.0444,"dy":0.0017,"dx":0.0017,"nx":28,"ny":28,"refTime":"2025-07-28T03:00:00:Z","depth":0,"parameterNumber":2,"parameterNumberName":"U-component_of_WINDS"},"data":[0,0,0,0,0,0,0,0,0,0,0,0,0,0,0,0,0,0,0,0,0,0,0,0,0,0,0,0,0,0,0,0,0,0,0,0,0,0,0,0,0,0,0,0,0,0,0,0,0,0,0,0,0,0,0,0,0,0,2.8388,2.8389,0,2.8476,2.8477,2.8478,2.8428,2.8426,2.8423,2.8421,2.8513,2.8518,2.8523,0,0,0,0,0,0,0,0,0,0,0,0,0,2.8179,2.8183,2.8388,2.8389,2.839,2.8476,2.8477,2.8478,2.8429,2.8426,2.8423,2.842,2.8512,2.8517,2.8523,0,0,0,0,0,0,0,0,0,0,0,0,0,2.8269,2.8185,2.8388,2.8376,2.8375,2.8476,2.8477,2.8478,2.8429,2.8425,2.8422,2.8418,2.851,2.8517,2.8524,2.8642,0,0,2.8546,2.8549,0,0,0,0,0,0,0,0,2.8264,2.8277,2.8376,2.8377,2.8377,2.8437,2.8437,2.8533,2.843,2.8409,2.8421,2.8417,2.8491,2.85,2.8524,2.8646,2.865,2.8546,2.8551,2.8554,2.8556,0,0,0,0,0,0,0,2.8258,2.8273,2.8423,2.8378,2.8378,2.8367,2.8375,2.8455,2.847,2.841,2.8407,2.8418,2.8491,2.8518,2.8526,2.8651,2.8546,2.8552,2.8557,2.856,2.8875,2.8879,0,0,0,0,0,0,2.8252,2.8268,2.842,2.8425,2.831,2.8373,2.8383,2.8422,2.8469,2.8472,2.8421,2.8415,2.8507,2.8518,2.8529,2.8671,2.8554,2.856,2.8564,2.8871,2.8876,2.8881,0,0,0,0,0,0,2.8248,2.8266,2.8416,2.8346,2.8364,2.8381,2.8425,2.8425,2.8452,2.8477,2.8479,2.8446,2.8505,2.8519,2.8614,2.8674,2.8564,2.857,2.8866,2.8873,2.8878,2.8956,0,0,0,0,0,0,2.8242,2.8265,2.8309,2.8347,2.8368,2.85,2.8428,2.843,2.8464,2.8458,2.8501,2.8504,2.8503,2.8604,2.8621,2.8681,2.8576,2.8861,2.8869,2.8876,2.8948,2.8964,2.8977,0,0,0,0,0,2.8235,2.8328,2.8312,2.833,2.8424,2.8503,2.8515,2.8511,2.8469,2.8514,2.853,2.8503,2.8664,2.8614,2.8633,2.8696,2.8857,2.8867,2.8876,2.8941,2.896,2.8977,0,0,0,0,0,0,2.8297,2.8332,2.8315,2.8423,2.846,2.8494,2.8551,2.8531,2.8582,2.8574,2.8567,2.8577,2.8677,2.8696,2.8639,2.8813,2.8754,2.8768,2.8797,2.8816,2.883,2.8824,2.8581,0,0,0,0,0,2.8323,2.8384,2.8412,2.8504,2.8524,2.8535,2.8569,2.8562,2.8601,2.8617,2.864,2.8679,2.8739,2.8778,2.8834,2.895,2.8959,2.9003,2.9018,2.9029,2.9042,2.9106,2.9126,2.8911,2.8911,2.8911,0,0,2.8378,2.8405,2.8444,2.8518,2.8546,2.861,2.8548,2.8618,2.8666,2.8628,2.8719,2.8737,2.8781,2.8887,2.8935,2.8906,2.9103,2.9041,2.9051,2.9056,2.9117,2.9137,2.9156,2.8917,2.8916,2.8915,0,0,2.8512,2.8537,2.8618,2.8647,2.869,2.8697,2.8716,2.8754,2.8764,2.8855,2.8828,2.8885,2.8988,2.902,2.905,2.9196,2.9173,2.9214,2.9291,2.9354,2.9371,2.9386,2.9439,2.9458,2.9226,2.9226,2.9226,0,2.8575,2.867,2.8662,2.8734,2.8768,2.8735,2.8818,2.8847,2.8906,2.8931,2.8897,2.9026,2.9053,2.9167,2.9202,2.9227,2.925,2.921,2.9369,2.9384,2.9398,2.9448,2.9468,2.9231,2.9231,2.923,2.923,0,2.8746,2.8812,2.8872,2.893,2.897,2.9047,2.9052,2.9094,2.9084,2.9094,2.9188,2.9219,2.9281,2.9308,2.9299,2.9421,2.9402,2.9369,2.931,2.9423,2.9471,2.949,2.9238,2.9236,2.9235,2.9234,0,0,2.8922,2.8974,2.8997,2.9023,2.9068,2.912,2.9195,2.9255,2.9292,2.9334,2.9399,2.9486,2.9456,2.949,2.9484,2.9539,2.9654,2.9499,2.95,2.9528,2.9792,2.9818,2.9841,2.9639,2.9642,2.9645,2.9789,0,2.9059,2.9191,2.9186,2.931,2.9371,2.9341,2.9407,2.9443,2.9455,2.9509,2.9522,2.9585,2.9539,2.956,2.9612,2.9629,2.9707,2.9618,2.97,2.9703,2.9691,2.9865,2.9893,3.0027,2.9807,2.9811,2.9813,0,2.9237,2.9285,2.9414,2.9451,2.9477,2.9536,2.9591,2.9643,2.9684,2.9688,2.9726,2.9712,2.979,2.9728,2.9836,2.9776,2.9808,2.9822,2.9827,2.9835,2.9766,2.988,3.0069,3.009,2.9842,2.984,2.9838,0,2.9354,2.9451,2.9541,2.9564,2.9609,2.9652,2.9672,2.9709,2.9745,2.9794,2.9818,2.9875,2.9907,2.9951,2.9954,2.9908,3.0063,3.0001,3.0071,3.0071,3.0106,3.0104,3.0305,3.0125,3.0125,3.0124,3.0124,0,2.9509,2.959,2.9594,2.965,2.974,2.9734,2.9823,2.984,2.9873,2.9932,2.9909,2.9965,2.9964,3.0021,3.0023,3.0113,3.0127,3.0134,3.0134,3.0137,3.0137,3.016,3.0151,3.013,3.0128,3.0127,3.0126,0,2.9656,2.9662,2.9759,2.9793,2.9803,2.9868,2.9898,2.9951,2.996,3.0036,3.0053,3.0068,3.0135,3.0141,3.0218,3.0219,3.0329,3.0318,3.0315,3.0314,3.0384,3.0378,3.0608,3.0638,3.0437,3.0439,3.0441,0,2.9755,2.9817,2.9857,2.9895,2.9918,2.9978,3.0016,3.0012,3.0052,3.0102,3.015,3.0214,3.0265,3.0373,3.0392,3.0451,3.0442,3.0518,3.0451,3.0452,3.0445,3.0442,3.0449,3.0532,3.0534,3.0536,3.0538,0,2.9931,2.9931,2.9985,3.0041,3.0085,3.0129,3.017,3.0202,3.0204,3.025,3.0317,3.0357,3.0435,3.05,3.0558,3.058,3.0561,3.0558,3.0578,3.0583,3.0579,3.0584,3.0353,3.0554,3.0552,3.0551,3.055,3.0549,3.0058,3.0112,3.0149,3.021,3.024,3.0279,3.0331,3.0346,3.0402,3.0465,3.046,3.0535,3.0574,3.0649,3.0676,3.0735,3.071,3.0738,3.0745,3.0753,3.0761,3.0569,3.0746,3.0745,3.0745,3.0744,3.0744,0,3.0234,3.0256,3.0313,3.037,3.0419,3.0394,3.0438,3.048,3.0546,3.0584,3.0634,3.0712,3.0774,3.0798,3.0859,3.0902,3.0894,3.0918,3.0916,3.0921,3.0779,3.0757,3.0923,3.0923,3.0923,3.0923,3.0923,3.0923,3.0332,3.0421,3.0426,3.053,3.0552,3.0624,3.0652,3.0688,3.0718,3.0805,3.0857,3.0871,3.0903,3.0966,3.1023,3.1028,3.1052,3.1081,3.1082,3.0949,3.0931,3.0914,3.0893,3.1086,3.1086,3.122,3.1221,3.1222]},{"header":{"parameterUnit":"m.s-1","parameterCategory":1,"la1":30.2991,"la2":30.254,"lo1":-89.0895,"lo2":-89.0444,"dy":0.0017,"dx":0.0017,"nx":28,"ny":28,"refTime":"2025-07-28T03:00:00:Z","depth":0,"parameterNumber":3,"parameterNumberName":"V-component_of_WINDS"},"data":[0,0,0,0,0,0,0,0,0,0,0,0,0,0,0,0,0,0,0,0,0,0,0,0,0,0,0,0,0,0,0,0,0,0,0,0,0,0,0,0,0,0,0,0,0,0,0,0,0,0,0,0,0,0,0,0,0,0,-1.745,-1.745,0,-1.7529,-1.753,-1.7531,-1.754,-1.7539,-1.7538,-1.7537,-1.7619,-1.7622,-1.7625,0,0,0,0,0,0,0,0,0,0,0,0,0,-1.7306,-1.7309,-1.745,-1.7451,-1.7452,-1.7529,-1.753,-1.7531,-1.754,-1.7539,-1.7538,-1.7537,-1.7618,-1.7622,-1.7625,0,0,0,0,0,0,0,0,0,0,0,0,0,-1.7375,-1.7309,-1.7449,-1.7465,-1.7467,-1.7529,-1.753,-1.7531,-1.754,-1.7539,-1.7537,-1.7536,-1.7617,-1.7621,-1.7626,-1.7677,0,0,-1.7639,-1.7641,0,0,0,0,0,0,0,0,-1.7371,-1.738,-1.7462,-1.7464,-1.7467,-1.7523,-1.751,-1.758,-1.754,-1.7512,-1.7537,-1.7536,-1.7588,-1.7595,-1.7613,-1.7681,-1.7685,-1.764,-1.7642,-1.7644,-1.7645,0,0,0,0,0,0,0,-1.7366,-1.7377,-1.7481,-1.7463,-1.7466,-1.7469,-1.7477,-1.7523,-1.7556,-1.7515,-1.7515,-1.7525,-1.7589,-1.7608,-1.7615,-1.7686,-1.7639,-1.7643,-1.7646,-1.7648,-1.7801,-1.7802,0,0,0,0,0,0,-1.7359,-1.7373,-1.7479,-1.7483,-1.7415,-1.7472,-1.7482,-1.7506,-1.7556,-1.7562,-1.7526,-1.7525,-1.7601,-1.7609,-1.7617,-1.7681,-1.7644,-1.7648,-1.7651,-1.78,-1.7801,-1.7803,0,0,0,0,0,0,-1.7356,-1.7368,-1.7475,-1.7429,-1.7442,-1.7476,-1.7503,-1.7508,-1.7527,-1.7564,-1.757,-1.7539,-1.7601,-1.7611,-1.7662,-1.7684,-1.765,-1.7654,-1.7798,-1.78,-1.7802,-1.7809,0,0,0,0,0,0,-1.7351,-1.7367,-1.7386,-1.7429,-1.7445,-1.7519,-1.7505,-1.7511,-1.7535,-1.7535,-1.7578,-1.7584,-1.7601,-1.7656,-1.7667,-1.769,-1.7658,-1.7796,-1.7799,-1.7802,-1.7807,-1.7811,-1.7814,0,0,0,0,0,-1.7346,-1.7385,-1.7387,-1.74,-1.747,-1.752,-1.7529,-1.7547,-1.7537,-1.7557,-1.758,-1.7583,-1.768,-1.7661,-1.7673,-1.7698,-1.7795,-1.7798,-1.7801,-1.7805,-1.781,-1.7814,0,0,0,0,0,0,-1.7344,-1.7391,-1.7394,-1.7448,-1.748,-1.7521,-1.7547,-1.7552,-1.7587,-1.7586,-1.7607,-1.7617,-1.7667,-1.7688,-1.7665,-1.7751,-1.7737,-1.7742,-1.7735,-1.774,-1.7744,-1.7738,-1.7661,0,0,0,0,0,-1.735,-1.7386,-1.7425,-1.7469,-1.7485,-1.7513,-1.7536,-1.7547,-1.7581,-1.7595,-1.7622,-1.7655,-1.7693,-1.7718,-1.7755,-1.781,-1.782,-1.7833,-1.7837,-1.784,-1.7845,-1.7876,-1.7882,-1.7814,-1.7814,-1.7813,0,0,-1.7363,-1.7393,-1.7414,-1.7469,-1.7495,-1.7533,-1.7525,-1.7564,-1.7592,-1.7601,-1.765,-1.7672,-1.771,-1.7764,-1.7789,-1.7783,-1.7866,-1.7844,-1.7846,-1.7849,-1.788,-1.7886,-1.7892,-1.7816,-1.7815,-1.7815,0,0,-1.7404,-1.743,-1.747,-1.7496,-1.7536,-1.7555,-1.7564,-1.7605,-1.762,-1.767,-1.7677,-1.7711,-1.7776,-1.7804,-1.7826,-1.7879,-1.7882,-1.789,-1.791,-1.794,-1.7946,-1.7951,-1.797,-1.7976,-1.7895,-1.7895,-1.7895,0,-1.7415,-1.7471,-1.749,-1.7529,-1.7554,-1.7563,-1.7603,-1.7628,-1.7678,-1.7695,-1.7687,-1.777,-1.7796,-1.7856,-1.7869,-1.7887,-1.7899,-1.7885,-1.7943,-1.7949,-1.7953,-1.7972,-1.7979,-1.7896,-1.7896,-1.7896,-1.7896,0,-1.7482,-1.7521,-1.7548,-1.7596,-1.7623,-1.7663,-1.7688,-1.7714,-1.7723,-1.7742,-1.7794,-1.7826,-1.787,-1.7886,-1.7895,-1.7947,-1.7942,-1.7939,-1.7925,-1.796,-1.7978,-1.7985,-1.7897,-1.7897,-1.7896,-1.7896,0,0,-1.7524,-1.7582,-1.7591,-1.7613,-1.7658,-1.7689,-1.7729,-1.7772,-1.7794,-1.7829,-1.7863,-1.7919,-1.7916,-1.7941,-1.7954,-1.798,-1.8021,-1.7974,-1.7975,-1.7981,-1.8081,-1.8083,-1.8091,-1.8023,-1.8025,-1.8026,-1.8077,0,-1.757,-1.7642,-1.7661,-1.7722,-1.7759,-1.7768,-1.7804,-1.7835,-1.7855,-1.7889,-1.7911,-1.795,-1.7944,-1.7959,-1.7986,-1.801,-1.8041,-1.8007,-1.8056,-1.8058,-1.8046,-1.81,-1.8102,-1.8149,-1.8084,-1.8086,-1.8086,0,-1.7634,-1.767,-1.7735,-1.7775,-1.7791,-1.7823,-1.7864,-1.7896,-1.7933,-1.7945,-1.7974,-1.7984,-1.8027,-1.8012,-1.8072,-1.8048,-1.807,-1.8085,-1.8087,-1.8092,-1.8074,-1.8106,-1.8164,-1.8171,-1.8097,-1.8097,-1.8096,0,-1.7658,-1.7723,-1.777,-1.7788,-1.7837,-1.7859,-1.788,-1.7915,-1.794,-1.7976,-1.7993,-1.8034,-1.8056,-1.8088,-1.8109,-1.8095,-1.8167,-1.8153,-1.8179,-1.8179,-1.8194,-1.8192,-1.8256,-1.8208,-1.8208,-1.8208,-1.8207,0,-1.7708,-1.7748,-1.7781,-1.781,-1.7855,-1.7876,-1.792,-1.7942,-1.7973,-1.8007,-1.8018,-1.805,-1.8076,-1.8111,-1.8128,-1.8176,-1.8186,-1.8198,-1.8202,-1.8196,-1.8195,-1.8211,-1.8208,-1.8209,-1.8209,-1.8209,-1.8208,0,-1.7743,-1.7767,-1.7819,-1.7861,-1.7872,-1.7903,-1.7939,-1.7968,-1.7988,-1.8031,-1.8042,-1.8074,-1.8116,-1.8141,-1.8194,-1.8206,-1.8259,-1.8261,-1.8246,-1.8248,-1.8272,-1.827,-1.8348,-1.836,-1.8304,-1.8304,-1.8305,0,-1.7773,-1.7803,-1.7848,-1.7872,-1.7893,-1.7931,-1.7956,-1.7978,-1.8004,-1.8048,-1.8072,-1.8115,-1.8151,-1.8218,-1.8246,-1.8287,-1.8291,-1.8316,-1.8297,-1.8291,-1.8292,-1.8289,-1.8293,-1.8319,-1.8319,-1.832,-1.832,0,-1.7824,-1.7834,-1.787,-1.7911,-1.7941,-1.7974,-1.8007,-1.8025,-1.8053,-1.8082,-1.8125,-1.8153,-1.8208,-1.825,-1.8294,-1.8316,-1.8323,-1.8326,-1.8334,-1.8329,-1.8319,-1.8325,-1.8255,-1.8324,-1.8323,-1.8323,-1.8323,-1.8323,-1.7857,-1.7885,-1.7921,-1.7961,-1.7988,-1.8018,-1.8048,-1.8072,-1.8108,-1.8154,-1.8165,-1.8211,-1.8247,-1.8306,-1.833,-1.8367,-1.8362,-1.8374,-1.8377,-1.838,-1.8381,-1.8313,-1.8375,-1.8375,-1.8374,-1.8374,-1.8374,0,-1.7909,-1.7933,-1.7969,-1.8015,-1.8046,-1.8049,-1.8086,-1.8113,-1.8152,-1.8186,-1.822,-1.8271,-1.8312,-1.8344,-1.8387,-1.841,-1.8414,-1.8421,-1.8419,-1.8424,-1.8382,-1.837,-1.8416,-1.8416,-1.8416,-1.8416,-1.8416,-1.8416,-1.7939,-1.7986,-1.8001,-1.8062,-1.8086,-1.813,-1.8151,-1.818,-1.8206,-1.8262,-1.8296,-1.8317,-1.835,-1.8395,-1.8434,-1.8442,-1.8457,-1.8463,-1.8472,-1.8432,-1.8427,-1.8423,-1.8412,-1.8466,-1.8467,-1.8512,-1.8512,-1.8512]}]]